sat.trackr.live / text

‹ back to catalog

HAIYANG-2C

NORAD 46469 · 2020-066A

PAYLOAD ACTIVE UNKNOWN

§ Identity

Operator
Country
PRC
Launch date
2020-09-21
Launch site
JSC
Launch vehicle
Mass (kg)
RCS (m²)

External: N2YO · Heavens-Above · Gunter

§ Orbital elements

Epoch: 2026-09-12T05:00:31.767264Z

Period
104.09 min
Inclination
66.0004°
Eccentricity
0.0005127
Mean motion
13.83374387 rev/d
Perigee alt
948.2 km
Apogee alt
955.7 km
Semi-major
7,330.1 km
B*
7.6042e-5
RAAN
358.6204°
Arg perigee
244.8249°
Mean anomaly
115.2288°
Rev number
30,153

§ Raw data

HAIYANG-2C1 46469U 20066A   26255.20870101  .00000003  00000+0  76042-4 0  99972 46469  66.0004 358.6204 0005127 244.8249 115.2288 13.83374387301539

JSON: /api/v1/satellites/46469 · /tle

For live sub-satellite position, see the globe view (requires WebGL).

§ Visibility from observer

Set your observer location to see the next 7 days of passes ≥ 10°. The values pass through the URL so the page stays shareable.

No JS? Fill the form by hand. The geolocation button needs JavaScript.

§ Radio — SatNOGS DB

ModeDescriptionDownlinkUplink
BPSK BPSK 2.203 GHz
FM S-band telemetry 2.217 GHz

2 transmitters · refreshed weekly from db.satnogs.org